West Columbia, SC

2:50 PM EDT on July 25, 2016 (GMT -0400)
Columbia Metro

Weather History for KCAE - March, 2013

Change the Weather History Date:

Thursday, March 7, 2013

  Actual Average Record
Temperature  
Mean Temperature 45 °F 53 °F  
Max Temperature 60 °F 66 °F 88 °F (1974)
Min Temperature 29 °F 41 °F 20 °F (1960)
Degree Days  
Heating Degree Days 20 12  
Month to date heating degree days 137 90  
Since 1 July heating degree days 1857 2189  
Cooling Degree Days 0 0  
Month to date cooling degree days 0 0  
Year to date cooling degree days 25 4  
Moisture  
Dew Point 27 °F    
Average Humidity 53    
Maximum Humidity 78    
Minimum Humidity 27    
Precipitation  
Precipitation 0.00 in 0.13 in 2.90 in (1996)
Month to date precipitation 0.02 0.91  
Year to date precipitation 6.74 8.10  
Sea Level Pressure  
Sea Level Pressure 30.19 in    
Wind  
Wind Speed 4 mph (NW)    
Max Wind Speed 15 mph    
Max Gust Speed 18 mph    
Visibility 10 miles    
Events      
T = Trace of Precipitation, MM = Missing Value Source: NWS Daily Summary

Daily Weather History Graph

Daily Weather History Graph

Search for Another Location

Airport or City:

Trip Planner

Search our weather history database for the weather conditions in past years. The results will help you decide how hot, cold, wet, or windy it might be!

Date:

Astronomy

Mar. 07, 2013 Rise Set
Actual Time 6:45 AM EST 6:26 PM EST
Civil Twilight 6:20 AM EST 6:51 PM EST
Nautical Twilight 5:51 AM EST 7:20 PM EST
Astronomical Twilight 5:22 AM EST 7:49 PM EST
Moon 3:33 AM EST (3/7) 2:21 PM EST (3/7)
Length of Visible Light 12h 30m
Length of Day
11h 40m
Waning Crescent, 20% of the Moon is Illuminated
Mar 7
Waning Crescent
Mar 11
New
Mar 19
First Quarter
Mar 27
Full
Apr 3
Last Quarter

Hourly Weather History & Observations

Time (EST) Temp. Windchill Dew Point Humidity Pressure Visibility Wind Dir Wind Speed Gust Speed Precip Events Conditions
12:56 AM 37.9 °F 35.5 °F 25.0 °F 60% 30.14 in 10.0 mi North 3.5 mph - N/A   Clear
1:56 AM 37.4 °F 32.1 °F 24.8 °F 60% 30.15 in 10.0 mi NW 6.9 mph - N/A   Clear
2:56 AM 37.0 °F - 25.0 °F 62% 30.15 in 10.0 mi Calm Calm - N/A   Clear
3:56 AM 36.0 °F - 25.0 °F 64% 30.16 in 10.0 mi Calm Calm - N/A   Clear
4:56 AM 35.1 °F - 25.0 °F 67% 30.17 in 10.0 mi Calm Calm - N/A   Clear
5:56 AM 30.9 °F 27.5 °F 23.0 °F 72% 30.20 in 10.0 mi West 3.5 mph - N/A   Clear
6:56 AM 30.0 °F 26.5 °F 24.1 °F 79% 30.23 in 10.0 mi West 3.5 mph - N/A   Clear
7:56 AM 37.9 °F 35.5 °F 26.1 °F 62% 30.24 in 10.0 mi NNW 3.5 mph - N/A   Partly Cloudy
8:56 AM 43.0 °F 41.3 °F 26.1 °F 51% 30.25 in 10.0 mi North 3.5 mph - N/A   Scattered Clouds
9:56 AM 46.0 °F 43.9 °F 25.0 °F 44% 30.25 in 10.0 mi NNE 4.6 mph - N/A   Scattered Clouds
10:56 AM 48.0 °F - 26.1 °F 42% 30.23 in 10.0 mi Calm Calm - N/A   Scattered Clouds
11:56 AM 52.0 °F - 26.1 °F 37% 30.21 in 10.0 mi Variable 3.5 mph - N/A   Scattered Clouds
12:56 PM 55.0 °F - 27.0 °F 34% 30.19 in 10.0 mi WNW 11.5 mph - N/A   Scattered Clouds
1:56 PM 57.0 °F - 28.0 °F 33% 30.16 in 10.0 mi WNW 6.9 mph 17.3 mph N/A   Scattered Clouds
2:56 PM 57.9 °F - 27.0 °F 31% 30.14 in 10.0 mi NW 9.2 mph - N/A   Scattered Clouds
3:56 PM 60.1 °F - 27.0 °F 28% 30.14 in 10.0 mi NW 8.1 mph - N/A   Partly Cloudy
4:56 PM 59.0 °F - 26.1 °F 28% 30.14 in 10.0 mi NW 9.2 mph - N/A   Partly Cloudy
5:56 PM 57.9 °F - 28.0 °F 32% 30.15 in 10.0 mi NW 3.5 mph - N/A   Clear
6:56 PM 55.0 °F - 30.0 °F 38% 30.17 in 10.0 mi Calm Calm - N/A   Clear
7:56 PM 48.0 °F - 33.1 °F 56% 30.18 in 10.0 mi Calm Calm - N/A   Clear
8:56 PM 44.1 °F - 32.0 °F 63% 30.19 in 10.0 mi Calm Calm - N/A   Clear
9:56 PM 39.9 °F 37.8 °F 32.0 °F 73% 30.20 in 10.0 mi WSW 3.5 mph - N/A   Clear
10:56 PM 46.0 °F 41.4 °F 30.9 °F 56% 30.23 in 10.0 mi NNE 9.2 mph 18.4 mph N/A   Clear
11:56 PM 46.0 °F 41.4 °F 28.0 °F 50% 30.23 in 10.0 mi NE 9.2 mph - N/A   Clear